Terminal Aerodrome Forecast
Issued by NWS Wakefield, VA

Home | Current Version | Previous Version | Text Only | Print | Product List | Glossary On
Versions: 1 2 3 4 5 6 7 8 9 10 11 12 13 14
000
FTUS41 KAKQ 022300
TAFRIC
TAF
KRIC 022329Z 0300/0324 23009KT P6SM SCT080
     FM030600 27003KT P6SM SCT050 BKN080
     FM031200 36005KT P6SM BKN100
     FM032000 07003KT P6SM SCT250=

USA.gov is the U.S. government's official web portal to all federal, state and local government web resources and services.